This is the latest recevied weather packets stored in our database for station/object s59zo-6. If no packets are shown the sender has not sent any weather packets the latest 10 day(s).
| Time | Temp. | Humidity | Pressure | Rain* | Wind** | Luminosity | Snow |
|---|---|---|---|---|---|---|---|
| 1787844605 | 28.89° C | 54% | 1020.1 hPa | 0 mm | - | - | - |
| 1787844305 | 28.89° C | 55% | 1020.1 hPa | 0 mm | - | - | - |
| 1787844005 | 28.89° C | 54% | 1019.9 hPa | 0 mm | - | - | - |
| 1787843704 | 29.44° C | 54% | 1019.8 hPa | 0 mm | - | - | - |
| 1787843405 | 29.44° C | 54% | 1019.9 hPa | 0 mm | - | - | - |
| 1787843104 | 29.44° C | 53% | 1019.7 hPa | 0 mm | - | - | - |
| 1787842805 | 29.44° C | 53% | 1019.9 hPa | 0 mm | - | - | - |
| 1787842505 | 29.44° C | 52% | 1019.9 hPa | 0 mm | - | - | - |
| 1787842205 | 30° C | 51% | 1019.8 hPa | 0 mm | - | - | - |
| 1787841905 | 30° C | 51% | 1019.9 hPa | 0 mm | - | - | - |
| 1787841605 | 30° C | 50% | 1019.9 hPa | 0 mm | - | - | - |
| 1787841304 | 30° C | 46% | 1019.8 hPa | 0 mm | - | - | - |
| 1787841005 | 30.56° C | 47% | 1019.9 hPa | 0 mm | - | - | - |
| 1787840704 | 30.56° C | 44% | 1019.7 hPa | 0 mm | - | - | - |
| 1787840405 | 30.56° C | 44% | 1019.7 hPa | 0 mm | - | - | - |
| 1787840105 | 30.56° C | 43% | 1019.6 hPa | 0 mm | - | - | - |
| 1787839805 | 31.11° C | 42% | 1019.6 hPa | 0 mm | - | - | - |
| 1787839505 | 31.11° C | 43% | 1019.6 hPa | 0 mm | - | - | - |
| 1787839205 | 31.11° C | 43% | 1019.6 hPa | 0 mm | - | - | - |
| 1787838904 | 31.11° C | 45% | 1019.5 hPa | 0 mm | - | - | - |
| 1787838605 | 31.11° C | 45% | 1019.5 hPa | 0 mm | - | - | - |
| 1787838304 | 30.56° C | 43% | 1019.6 hPa | 0 mm | - | - | - |
| 1787838005 | 31.11° C | 45% | 1019.5 hPa | 0 mm | - | - | - |
| 1787837704 | 31.11° C | 44% | 1019.6 hPa | 0 mm | - | - | - |
| 1787837405 | 31.11° C | 46% | 1019.6 hPa | 0 mm | - | - | - |
* Rain latest hour (hover to see other rain measurements)
** Current wind speed in m/s (hover to see current wind gust speed)